Location: Newark
(49.9828°N, 3.1606°E)
Time: 16:40:36
(UTC+00:00)

Envisat - Pass Details

Date: 02 February 2020
Orbit: 764 x 766 km, 98.1° (Epoch: 22 February)

Event Time Altitude Azimuth Distance (km) Brightness Sun altitude
Rises 19:13:08 0° 223° (SW) 3,224 6.8 -24.3°
Reaches altitude 10° 19:17:07 10° 254° (WSW) 2,305 6.4 -25.0°
Maximum altitude 19:18:56 12° 276° (W) 2,183 6.4 -25.2°
Drops below altitude 10° 19:20:46 10° 297° (WNW) 2,311 6.3 -25.5°
Sets 19:24:48 0° 329° (NNW) 3,244 6.7 -26.2°
